User: anonymous   Login
Location: Kalberh�ni
(46.4610°N, 7.2453°E)
Time: 16:51:27
(UTC+00:00)
Language:

Cosmos 2333 Rocket - Orbit

View from above orbital plane
View from above orbital plane
View from above satellite
View from above satellite

Ground track
Ground track

The orbit data is extracted from the following two-line orbital elements,

1 24298U 96051B   21269.00681964 -.00000160  00000-0 -60499-4 0  9991
2 24298  70.8271   8.8303 0014615  11.7949 348.3511 14.12415583292352
Epoch (UTC): 26 September 2021 00:09:49
Eccentricity: 0.0014615
inclination: 70.8271°
perigee height: 840 km
apogee height: 861 km
right ascension of ascending node: 8.8303°
argument of perigee: 11.7949°
revolutions per day: 14.12415583
mean anomaly at epoch: 348.3511°
orbit number at epoch: 29235

The dashed part of the orbit path shows where the satellite is in the earth's shadow,  

DLR